Location: Most
(50.5133°N, 13.6207°E)
Time: 06:17:54
(UTC+01:00)

ZACube-1 - Pass Details

Date: 06 December 2021
Orbit: 583 x 664 km, 97.6° (Epoch: 19 January)

Event Time Altitude Azimuth Distance (km) Brightness Sun altitude
Rises 06:07:23 0° 1° (N) 3,002 ? -15.5°
Reaches altitude 10° 06:10:16 10° 342° (NNW) 2,093 ? -15.1°
Enters shadow 06:10:46 12° 337° (NNW) 1,971 ? -15.0°
